Location: Bosmont
(49.7318°N, 3.8587°E)
Time: 16:11:58
(UTC+00:00)

Cosmos 1943 Rocket - Pass Details

Date: 08 February 2023
Orbit: 811 x 844 km, 71.0° (Epoch: 26 March)

Event Time Altitude Azimuth Distance (km) Brightness Sun altitude
Rises 18:58:51 0° 333° (NNW) 3,415 5.7 -21.0°
Reaches altitude 10° 19:01:28 10° 341° (NNW) 2,476 4.9 -21.4°
Maximum altitude 19:06:50 42° 51° (NE) 1,195 2.6 -22.3°
Enters shadow 19:07:00 42° 55° (NE) 1,196 2.6 -22.3°
